Terminal Aerodrome Forecast
Issued by NWS Cleveland, OH

Home | Current Version | Previous Version | Text Only | Print | Product List | Glossary On
Versions: 1 2 3 4 5 6 7 8 9 10 11 12 13 14 15 16 17 18 19 20 21 22 23 24 25 26 27 28 29 30 31 32 33 34 35 36 37 38 39 40 41 42 43 44 45 46 47 48 49 50
000
FTUS41 KCLE 181333 AAB
TAFCLE
TAF AMD
KCLE 181333Z 1814/1918 VRB03KT P6SM SCT006 OVC040
      TEMPO 1814/1817 OVC006
     FM182100 03004KT P6SM OVC050
     FM190600 VRB03KT 3SM BR OVC010=

USA.gov is the U.S. government's official web portal to all federal, state and local government web resources and services.